Upstream stations:
Downstream station:
SHEF ID: NKHO2 Little Washita River East of Nin
STATION TYPE:
Regulating: Stage = 15.00, Flow = 2623
STAGE RIV-FLOW BAT-LOAD
ft cfs volt
Ccp-Rev Ccp-Rev Ccp-Rev
(US/Central)
07/05 00:00 6.65 17 12.47
07/05 01:00 6.65 17 12.45
07/05 02:00 6.65 17 12.43
07/05 03:00 6.65 17 12.42
07/05 04:00 6.65 17 12.41
07/05 05:00 6.64 16 12.40
07/05 06:00 6.65 17 12.38
07/05 07:00 6.64 16 12.37
07/05 08:00 6.64 16 12.38
07/05 09:00 6.64 16 12.61
07/05 10:00 6.64 16 13.18
07/05 11:00 6.64 16 13.29
07/05 12:00 6.64 16 13.32
07/05 13:00 6.64 16 12.93
07/05 14:00 6.62 15 12.73
07/05 15:00 6.60 14 12.78
07/05 16:00 6.57 12 12.80
07/05 17:00 6.55 11 12.82
07/05 18:00 6.53 10 12.82
07/05 19:00 6.51 9 12.84
07/05 20:00 6.52 10 12.73
07/05 21:00 6.52 10 12.62
07/05 22:00 6.52 10 12.51
07/05 23:00 6.52 10 12.49